Monument Pass, CO

7:39 AM MDT on May 23, 2017 (GMT -0600)
Monument Pass

Weather History for KMNH - February, 2014

Change the Weather History Date:

Thursday, February 13, 2014

  Actual Average Record
Temperature  
Mean Temperature 42 °F -  
Max Temperature 51 °F - 55 °F (2011)
Min Temperature 32 °F - -5 °F (2004)
Degree Days  
Heating Degree Days 24    
Month to date heating degree days  
Cooling Degree Days 0    
Month to date cooling degree days  
Moisture  
Dew Point 25 °F    
Average Humidity 53    
Maximum Humidity 81    
Minimum Humidity 33    
Precipitation  
Precipitation 0.00 in - 0.02 in (2007)
Sea Level Pressure  
Sea Level Pressure 29.87 in    
Wind  
Wind Speed 13 mph (WNW)    
Max Wind Speed 26 mph    
Max Gust Speed 36 mph    
Visibility 10 miles    
Events      
T = Trace of Precipitation, MM = Missing Value Source: NWS Daily Summary

Daily Weather History Graph

Daily Weather History Graph

Search for Another Location

Airport or City:

Trip Planner

Search our weather history database for the weather conditions in past years. The results will help you decide how hot, cold, wet, or windy it might be!

Date:

Astronomy

Feb. 13, 2014 Rise Set
Actual Time 6:52 AM MST 5:33 PM MST
Civil Twilight 6:25 AM MST 6:00 PM MST
Nautical Twilight 5:53 AM MST 6:32 PM MST
Astronomical Twilight 5:22 AM MST 7:03 PM MST
Moon 4:44 PM MST (2/13) 5:47 AM MST (2/13)
Length of Visible Light 11h 35m
Length of Day
10h 40m
Waxing Gibbous, 99% of the Moon is Illuminated
Feb 13
Waxing Gibbous
Feb 14
Full
Feb 22
Last Quarter
Mar 1
New
Mar 8
First Quarter

Hourly Weather History & Observations

Time (MST) Temp. Windchill Dew Point Humidity Pressure Visibility Wind Dir Wind Speed Gust Speed Precip Events Conditions
12:11 AM 37.4 °F 27.2 °F 23.0 °F 56% 29.89 in 10.0 mi WNW 19.6 mph 29.9 mph N/A   Clear
9:51 AM 44.6 °F 40.7 °F 23.0 °F 43% 29.95 in 10.0 mi West 6.9 mph - N/A   Clear
10:11 AM 46.4 °F 41.5 °F 23.0 °F 40% 29.94 in 10.0 mi West 10.4 mph - N/A   Clear
10:32 AM 48.2 °F - 23.0 °F 37% 29.93 in 10.0 mi West 11.5 mph - N/A   Clear
10:52 AM 48.2 °F - 23.0 °F 37% 29.92 in 10.0 mi WSW 9.2 mph - N/A   Clear
11:12 AM 50.0 °F - 24.8 °F 37% 29.91 in 10.0 mi West 5.8 mph - N/A   Clear
11:32 AM 51.8 °F - 23.0 °F 33% 29.89 in 10.0 mi West 4.6 mph - N/A   Clear
11:52 AM 50.0 °F - 26.6 °F 40% 29.88 in 10.0 mi West 10.4 mph - N/A   Clear
12:32 PM 50.0 °F - 23.0 °F 35% 29.87 in 10.0 mi NNW 9.2 mph - N/A   Clear
12:52 PM 50.0 °F - 24.8 °F 37% 29.86 in 10.0 mi WNW 21.9 mph 31.1 mph N/A   Clear
1:12 PM 50.0 °F - 23.0 °F 35% 29.85 in 10.0 mi WNW 26.5 mph 35.7 mph N/A   Clear
1:32 PM 50.0 °F - 23.0 °F 35% 29.85 in 10.0 mi WNW 23.0 mph 34.5 mph N/A   Clear
1:52 PM 50.0 °F - 23.0 °F 35% 29.85 in 10.0 mi WNW 26.5 mph 32.2 mph N/A   Clear
2:12 PM 48.2 °F - 23.0 °F 37% 29.84 in 10.0 mi NW 16.1 mph 21.9 mph N/A   Clear
2:32 PM 48.2 °F - 23.0 °F 37% 29.83 in 10.0 mi NW 18.4 mph 25.3 mph N/A   Clear
2:52 PM 48.2 °F - 21.2 °F 34% 29.84 in 10.0 mi NW 13.8 mph - N/A   Clear
3:12 PM 50.0 °F - 23.0 °F 35% 29.83 in 10.0 mi WNW 19.6 mph 28.8 mph N/A   Clear
3:31 PM 50.0 °F - 24.8 °F 37% 29.83 in 10.0 mi NW 12.7 mph 25.3 mph N/A   Clear
3:52 PM 50.0 °F - 23.0 °F 35% 29.83 in 10.0 mi NW 11.5 mph 17.3 mph N/A   Scattered Clouds
4:12 PM 46.4 °F 41.5 °F 23.0 °F 40% 29.83 in 10.0 mi NW 10.4 mph - N/A   Scattered Clouds
4:32 PM 46.4 °F 41.5 °F 24.8 °F 43% 29.84 in 10.0 mi NW 10.4 mph 17.3 mph N/A   Scattered Clouds
4:52 PM 44.6 °F 39.2 °F 26.6 °F 49% 29.84 in 10.0 mi WNW 10.4 mph - N/A   Scattered Clouds
5:12 PM 42.8 °F 36.6 °F 26.6 °F 53% 29.85 in 10.0 mi WNW 11.5 mph - N/A   Scattered Clouds
5:32 PM 39.2 °F 33.0 °F 26.6 °F 61% 29.85 in 10.0 mi WNW 9.2 mph - N/A   Scattered Clouds
5:51 PM 39.2 °F 32.0 °F 26.6 °F 61% 29.86 in 10.0 mi WNW 11.5 mph - N/A   Clear
6:12 PM 37.4 °F 30.3 °F 26.6 °F 65% 29.87 in 10.0 mi West 10.4 mph - N/A   Clear
6:30 PM 37.4 °F 32.1 °F 24.8 °F 60% 29.87 in 10.0 mi WNW 6.9 mph - N/A   Clear
6:51 PM 37.4 °F 29.8 °F 26.6 °F 65% 29.89 in 10.0 mi NW 11.5 mph - N/A   Mostly Cloudy
7:10 PM 41.0 °F 33.5 °F 23.0 °F 49% 29.89 in 10.0 mi NW 13.8 mph 19.6 mph N/A   Overcast
7:31 PM 39.2 °F 32.5 °F 23.0 °F 52% 29.89 in 10.0 mi NW 10.4 mph 21.9 mph N/A   Mostly Cloudy
7:51 PM 37.4 °F 32.1 °F 24.8 °F 60% 29.89 in 10.0 mi NW 6.9 mph - N/A   Mostly Cloudy
8:11 PM 37.4 °F 28.2 °F 26.6 °F 65% 29.88 in 10.0 mi NW 16.1 mph 20.7 mph N/A   Scattered Clouds
8:31 PM 35.6 °F 25.9 °F 28.4 °F 75% 29.89 in 10.0 mi WNW 16.1 mph - N/A   Scattered Clouds
8:51 PM 33.8 °F 23.9 °F 28.4 °F 81% 29.88 in 10.0 mi WNW 15.0 mph 19.6 mph N/A   Scattered Clouds
9:11 PM 35.6 °F 27.1 °F 26.6 °F 70% 29.88 in 10.0 mi West 12.7 mph - N/A   Scattered Clouds
9:31 PM 35.6 °F 26.6 °F 26.6 °F 70% 29.89 in 10.0 mi West 13.8 mph - N/A   Clear
9:51 PM 35.6 °F 27.1 °F 26.6 °F 70% 29.88 in 10.0 mi WSW 12.7 mph - N/A   Scattered Clouds
10:10 PM 33.8 °F 24.8 °F 26.6 °F 75% 29.89 in 10.0 mi West 12.7 mph - N/A   Scattered Clouds
10:30 PM 33.8 °F 26.4 °F 26.6 °F 75% 29.87 in 10.0 mi West 9.2 mph - N/A   Scattered Clouds
10:50 PM 33.8 °F 29.6 °F 26.6 °F 75% 29.88 in 10.0 mi West 4.6 mph - N/A   Clear
11:11 PM 33.8 °F 29.6 °F 26.6 °F 75% 29.90 in 10.0 mi WNW 4.6 mph - N/A   Scattered Clouds
11:31 PM 32.0 °F 26.4 °F 26.6 °F 80% 29.90 in 10.0 mi NNW 5.8 mph - N/A   Mostly Cloudy
11:50 PM 33.8 °F 26.4 °F 26.6 °F 75% 29.90 in 10.0 mi NNW 9.2 mph - N/A   Overcast